Norfolk, NE

10:06 AM CDT on September 24, 2017 (GMT -0500)
Stefan Memorial

Weather History for KOFK - May, 2012

Change the Weather History Date:

Wednesday, May 16, 2012

  Actual Average Record
Temperature  
Mean Temperature 58 °F 60 °F  
Max Temperature 80 °F 72 °F 93 °F (1939)
Min Temperature 36 °F 49 °F 28 °F (1929)
Degree Days  
Heating Degree Days 7 6  
Month to date heating degree days 65 127  
Since 1 July heating degree days 5390 6550  
Cooling Degree Days 0 1  
Month to date cooling degree days 44 16  
Year to date cooling degree days 85 28  
Growing Degree Days 8 (Base 50)    
Moisture  
Dew Point 33 °F    
Average Humidity 46    
Maximum Humidity 76    
Minimum Humidity 15    
Precipitation  
Precipitation 0.00 in 0.13 in 1.74 in (1969)
Month to date precipitation 0.36 1.90  
Year to date precipitation 5.99 7.67  
Snow  
Snow 0.00 in 0.00 in - ()
Month to date snowfall 0.0 0.3  
Since 1 July snowfall 15.3 30.8  
Snow Depth 0.00 in    
Sea Level Pressure  
Sea Level Pressure 30.06 in    
Wind  
Wind Speed 11 mph (SSE)    
Max Wind Speed 21 mph    
Max Gust Speed 26 mph    
Visibility 10 miles    
Events      
T = Trace of Precipitation, MM = Missing Value Source: NWS Daily Summary

Daily Weather History Graph

Daily Weather History Graph

Search for Another Location

Airport or City:

Trip Planner

Search our weather history database for the weather conditions in past years. The results will help you decide how hot, cold, wet, or windy it might be!

Date:

Astronomy

May. 16, 2012 Rise Set
Actual Time 6:07 AM CDT 8:45 PM CDT
Civil Twilight 5:35 AM CDT 9:17 PM CDT
Nautical Twilight 4:55 AM CDT 9:57 PM CDT
Astronomical Twilight 4:10 AM CDT 10:43 PM CDT
Moon 3:41 AM CDT (5/16) 4:58 PM CDT (5/16)
Length of Visible Light 15h 41m
Length of Day
14h 37m
Waning Crescent, 16% of the Moon is Illuminated
May 16
Waning Crescent
May 20
New
May 28
First Quarter
Jun 4
Full
Jun 11
Last Quarter

Hourly Weather History & Observations

Time (CDT) Temp. Windchill Dew Point Humidity Pressure Visibility Wind Dir Wind Speed Gust Speed Precip Events Conditions
12:56 AM 48.0 °F - 36.0 °F 63% 30.13 in 10.0 mi West 3.5 mph - N/A   Clear
1:56 AM 48.0 °F - 35.1 °F 61% 30.13 in 10.0 mi WNW 3.5 mph - N/A   Clear
2:56 AM 46.9 °F - 35.1 °F 63% 30.13 in 10.0 mi West 3.5 mph - N/A   Clear
3:56 AM 46.0 °F 44.8 °F 35.1 °F 66% 30.14 in 10.0 mi West 3.5 mph - N/A   Clear
4:56 AM 37.0 °F - 33.1 °F 86% 30.15 in 10.0 mi Calm Calm - N/A   Clear
5:56 AM 41.0 °F - 34.0 °F 76% 30.15 in 10.0 mi Calm Calm - N/A   Clear
6:56 AM 42.1 °F - 36.0 °F 79% 30.15 in 10.0 mi Calm Calm - N/A   Clear
7:56 AM 52.0 °F - 37.9 °F 59% 30.15 in 10.0 mi ESE 5.8 mph - N/A   Clear
8:56 AM 59.0 °F - 36.0 °F 42% 30.15 in 10.0 mi ESE 10.4 mph - N/A   Clear
9:56 AM 64.9 °F - 33.1 °F 31% 30.16 in 10.0 mi ESE 11.5 mph - N/A   Clear
10:56 AM 66.9 °F - 34.0 °F 30% 30.16 in 10.0 mi SSE 9.2 mph - N/A   Clear
11:56 AM 69.1 °F - 32.0 °F 25% 30.13 in 10.0 mi SE 12.7 mph 16.1 mph N/A   Clear
12:56 PM 73.0 °F - 32.0 °F 22% 30.10 in 10.0 mi SSE 15.0 mph 20.7 mph N/A   Clear
1:56 PM 75.0 °F - 30.9 °F 20% 30.07 in 10.0 mi SE 13.8 mph 18.4 mph N/A   Clear
2:56 PM 77.0 °F - 30.0 °F 18% 30.04 in 10.0 mi SSE 13.8 mph 18.4 mph N/A   Clear
3:56 PM 79.0 °F - 28.0 °F 15% 30.01 in 10.0 mi ESE 15.0 mph 19.6 mph N/A   Clear
4:56 PM 80.1 °F - 28.0 °F 15% 29.99 in 10.0 mi SE 16.1 mph - N/A   Clear
5:56 PM 79.0 °F - 28.0 °F 15% 29.96 in 10.0 mi SE 18.4 mph - N/A   Clear
6:56 PM 78.1 °F - 28.9 °F 17% 29.94 in 10.0 mi SSE 15.0 mph - N/A   Clear
7:56 PM 75.0 °F - 30.0 °F 19% 29.94 in 10.0 mi SSE 13.8 mph - N/A   Clear
8:56 PM 72.0 °F - 30.0 °F 21% 29.93 in 10.0 mi SSE 12.7 mph - N/A   Clear
9:56 PM 70.0 °F - 32.0 °F 25% 29.92 in 10.0 mi SSE 13.8 mph - N/A   Clear
10:56 PM 68.0 °F - 33.1 °F 27% 29.91 in 10.0 mi SE 13.8 mph - N/A   Clear
11:56 PM 66.9 °F - 34.0 °F 30% 29.89 in 10.0 mi SSE 17.3 mph 25.3 mph N/A   Clear